| time (UTC) | temp F | wind direction | speed knots | gust knots | rain 1hr in | rain 24hr in | rain mn in | humidity % | barometer mb |
| 20260507165940 | 60 | 203 | 7.0 | 13.0 | 0.00 | 0.00 | 0.00 | 52 | 1019.7 |
| 20260507165437 | 59 | 271 | 1.7 | 12.2 | 0.00 | 0.00 | 0.00 | 53 | 1019.8 |
| 20260507164932 | 59 | 231 | 5.2 | 13.0 | 0.00 | 0.00 | 0.00 | 54 | 1019.8 |
| 20260507164430 | 59 | 223 | 12.2 | 14.8 | 0.00 | 0.00 | 0.00 | 53 | 1019.8 |
| 20260507163926 | 57 | 206 | 4.3 | 18.2 | 0.00 | 0.00 | 0.00 | 56 | 1019.9 |
| 20260507163424 | 59 | 204 | 15.6 | 20.0 | 0.00 | 0.00 | 0.00 | 54 | 1019.9 |
| 20260507162921 | 58 | 226 | 13.0 | 13.0 | 0.00 | 0.00 | 0.00 | 54 | 1020.1 |
| 20260507162416 | 59 | 239 | 6.1 | 12.2 | 0.00 | 0.00 | 0.00 | 54 | 1020.1 |
| 20260507161914 | 57 | 202 | 7.8 | 13.0 | 0.00 | 0.00 | 0.00 | 57 | 1020.2 |
| 20260507161409 | 56 | 209 | 9.6 | 12.2 | 0.00 | 0.00 | 0.00 | 57 | 1020.0 |
| 20260507160906 | 57 | 209 | 8.7 | 16.5 | 0.00 | 0.00 | 0.00 | 55 | 1020.0 |
| 20260507160402 | 56 | 228 | 8.7 | 14.8 | 0.00 | 0.00 | 0.00 | 58 | 1020.2 |
| 20260507155858 | 56 | 227 | 9.6 | 11.3 | 0.00 | 0.00 | 0.00 | 59 | 1020.2 |
| 20260507155354 | 54 | 274 | 4.3 | 9.6 | 0.00 | 0.00 | 0.00 | 64 | 1020.2 |
| 20260507154851 | 54 | 238 | 9.6 | 13.0 | 0.00 | 0.00 | 0.00 | 64 | 1020.4 |
| 20260507154348 | 53 | 238 | 4.3 | 10.4 | 0.00 | 0.00 | 0.00 | 65 | 1020.4 |
| 20260507153932 | 53 | 199 | 11.3 | 16.5 | 0.00 | 0.00 | 0.00 | 64 | 1020.2 |
| 20260507153846 | 53 | 199 | 11.3 | 16.5 | 0.00 | 0.00 | 0.00 | 64 | 1020.2 |
| 20260507153342 | 53 | 208 | 7.0 | 13.0 | 0.00 | 0.00 | 0.00 | 66 | 1020.4 |
| 20260507153139 | 52 | 223 | 3.5 | 7.0 | 0.00 | 0.00 | 0.00 | 68 | 1020.5 |
| 20260507152838 | 52 | 223 | 3.5 | 7.0 | 0.00 | 0.00 | 0.00 | 68 | 1020.5 |
| 20260507152334 | 52 | 229 | 6.1 | 9.6 | 0.00 | 0.00 | 0.00 | 68 | 1020.5 |
| 20260507152240 | 53 | 210 | 3.5 | 6.1 | 0.00 | 0.00 | 0.00 | 69 | 1020.6 |
| 20260507151831 | 53 | 210 | 3.5 | 6.1 | 0.00 | 0.00 | 0.00 | 69 | 1020.6 |
| 20260507151327 | 51 | 189 | 1.7 | 6.1 | 0.00 | 0.00 | 0.00 | 72 | 1020.8 |
| 20260507150825 | 51 | 308 | 0.9 | 9.6 | 0.00 | 0.00 | 0.00 | 74 | 1020.5 |
| 20260507150321 | 50 | 239 | 2.6 | 6.1 | 0.00 | 0.00 | 0.00 | 75 | 1020.7 |
| 20260507145817 | 50 | 224 | 4.3 | 4.3 | 0.00 | 0.00 | 0.00 | 76 | 1020.7 |
| 20260507145313 | 48 | 204 | 2.6 | 9.6 | 0.00 | 0.00 | 0.00 | 78 | 1020.8 |
| 20260507144811 | 48 | 223 | 9.6 | 11.3 | 0.00 | 0.00 | 0.00 | 80 | 1020.8 |
| 20260507144308 | 48 | 229 | 3.5 | 6.1 | 0.00 | 0.00 | 0.00 | 81 | 1020.8 |
| 20260507143804 | 47 | 331 | 4.3 | 9.6 | 0.00 | 0.00 | 0.00 | 84 | 1020.8 |
| 20260507143302 | 47 | 314 | 3.5 | 7.0 | 0.00 | 0.00 | 0.00 | 85 | 1021.0 |
| 20260507142758 | 46 | 314 | 3.5 | 6.1 | 0.00 | 0.00 | 0.00 | 86 | 1021.0 |
| 20260507142254 | 45 | 216 | 7.8 | 8.7 | 0.00 | 0.00 | 0.00 | 88 | 1020.9 |
| 20260507141751 | 45 | 292 | 5.2 | 7.8 | 0.00 | 0.00 | 0.00 | 89 | 1021.2 |
| 20260507141248 | 44 | 224 | 3.5 | 10.4 | 0.00 | 0.00 | 0.00 | 91 | 1021.4 |
| 20260507140744 | 44 | 182 | 1.7 | 6.1 | 0.00 | 0.00 | 0.00 | 93 | 1021.1 |
| 20260507140242 | 43 | 217 | 3.5 | 9.6 | 0.00 | 0.00 | 0.00 | 94 | 1021.4 |
| 20260507135738 | 43 | 342 | 3.5 | 7.8 | 0.00 | 0.00 | 0.00 | 96 | 1021.4 |
| 20260507135236 | 43 | 306 | 2.6 | 7.0 | 0.00 | 0.00 | 0.00 | 96 | 1021.1 |
| 20260507134732 | 42 | 260 | 1.7 | 7.0 | 0.00 | 0.00 | 0.00 | 97 | 1021.4 |
| 20260507134228 | 42 | 302 | 1.7 | 4.3 | 0.00 | 0.00 | 0.00 | 97 | 1021.4 |
| 20260507133724 | 42 | 192 | 1.7 | 9.6 | 0.00 | 0.00 | 0.00 | 97 | 1021.6 |
| 20260507133221 | 42 | 303 | 0.9 | 9.6 | 0.00 | 0.00 | 0.00 | 97 | 1021.2 |
| 20260507132719 | 41 | 166 | 1.7 | 4.3 | 0.00 | 0.00 | 0.00 | 97 | 1021.5 |
| 20260507132215 | 41 | 299 | 6.1 | 7.0 | 0.00 | 0.00 | 0.00 | 97 | 1021.5 |
| 20260507131712 | 41 | 278 | 1.7 | 4.3 | 0.00 | 0.00 | 0.00 | 97 | 1021.4 |
| 20260507131210 | 41 | 202 | 3.5 | 6.1 | 0.00 | 0.00 | 0.00 | 97 | 1021.2 |
| 20260507130706 | 41 | 310 | 5.2 | 5.2 | 0.00 | 0.00 | 0.00 | 97 | 1021.6 |
| 20260507130204 | 40 | 293 | 2.6 | 5.2 | 0.00 | 0.00 | 0.00 | 97 | 1021.5 |
| 20260507125702 | 40 | 298 | 6.1 | 7.0 | 0.00 | 0.00 | 0.00 | 97 | 1021.4 |
| 20260507125200 | 40 | 354 | 1.7 | 4.3 | 0.00 | 0.00 | 0.00 | 97 | 1021.2 |
| 20260507124656 | 40 | 330 | 5.2 | 6.1 | 0.00 | 0.00 | 0.00 | 97 | 1021.2 |
| 20260507124153 | 40 | 286 | 1.7 | 5.2 | 0.00 | 0.00 | 0.00 | 97 | 1020.9 |
| 20260507123652 | 40 | 40 | 0.9 | 4.3 | 0.00 | 0.00 | 0.00 | 97 | 1021.1 |
| 20260507123148 | 39 | 309 | 3.5 | 5.2 | 0.00 | 0.00 | 0.00 | 97 | 1021.0 |
| 20260507122644 | 40 | 316 | 4.3 | 4.3 | 0.00 | 0.00 | 0.00 | 97 | 1021.0 |
| 20260507122139 | 40 | 311 | 4.3 | 6.1 | 0.00 | 0.00 | 0.00 | 97 | 1021.0 |
| 20260507121636 | 39 | 318 | 4.3 | 6.1 | 0.00 | 0.00 | 0.00 | 96 | 1020.9 |
| 20260507121132 | 40 | 298 | 5.2 | 5.2 | 0.00 | 0.00 | 0.00 | 96 | 1020.9 |
| 20260507120628 | 40 | 324 | 4.3 | 5.2 | 0.00 | 0.00 | 0.00 | 96 | 1021.0 |
| 20260507120125 | 40 | 330 | 3.5 | 4.3 | 0.00 | 0.00 | 0.00 | 96 | 1020.8 |
| 20260507115621 | 40 | 325 | 1.7 | 5.2 | 0.00 | 0.00 | 0.00 | 96 | 1021.0 |
| 20260507115117 | 40 | 327 | 3.5 | 3.5 | 0.00 | 0.00 | 0.00 | 96 | 1020.9 |
| 20260507114613 | 40 | 327 | 2.6 | 5.2 | 0.00 | 0.00 | 0.00 | 96 | 1020.8 |
| 20260507114110 | 40 | 338 | 2.6 | 4.3 | 0.00 | 0.00 | 0.00 | 96 | 1020.8 |
| 20260507113608 | 40 | 328 | 3.5 | 5.2 | 0.00 | 0.00 | 0.00 | 95 | 1020.8 |
| 20260507113105 | 40 | 317 | 2.6 | 3.5 | 0.00 | 0.00 | 0.00 | 95 | 1020.9 |
| 20260507112603 | 40 | 318 | 4.3 | 5.2 | 0.00 | 0.00 | 0.00 | 95 | 1020.8 |
| 20260507112059 | 40 | 339 | 3.5 | 4.3 | 0.00 | 0.00 | 0.00 | 95 | 1020.7 |
| 20260507111556 | 40 | 347 | 3.5 | 4.3 | 0.00 | 0.00 | 0.00 | 94 | 1020.7 |
| 20260507111053 | 40 | 322 | 3.5 | 6.1 | 0.00 | 0.00 | 0.00 | 94 | 1020.8 |
| 20260507110549 | 40 | 318 | 4.3 | 6.1 | 0.00 | 0.00 | 0.00 | 94 | 1020.7 |
| 20260507110046 | 40 | 320 | 3.5 | 6.1 | 0.00 | 0.00 | 0.00 | 94 | 1021.0 |
| 20260507105542 | 40 | 305 | 5.2 | 7.0 | 0.00 | 0.00 | 0.00 | 93 | 1020.9 |
| 20260507105038 | 40 | 337 | 3.5 | 4.3 | 0.00 | 0.00 | 0.00 | 93 | 1020.8 |
| 20260507104536 | 41 | 311 | 2.6 | 6.1 | 0.00 | 0.00 | 0.00 | 93 | 1020.8 |
| 20260507104032 | 41 | 346 | 1.7 | 4.3 | 0.00 | 0.00 | 0.00 | 93 | 1020.8 |
| 20260507103528 | 40 | 348 | 1.7 | 3.5 | 0.00 | 0.00 | 0.00 | 92 | 1020.8 |
| 20260507103025 | 40 | 29 | 1.7 | 3.5 | 0.00 | 0.00 | 0.00 | 92 | 1020.9 |
| 20260507102522 | 40 | 19 | 1.7 | 4.3 | 0.00 | 0.00 | 0.00 | 92 | 1020.9 |
| 20260507102018 | 40 | 60 | 0.0 | 1.7 | 0.00 | 0.00 | 0.00 | 91 | 1020.9 |
| 20260507101514 | 40 | 346 | 0.9 | 1.7 | 0.00 | 0.00 | 0.00 | 91 | 1020.9 |
| 20260507101010 | 40 | 18 | 3.5 | 3.5 | 0.00 | 0.00 | 0.00 | 91 | 1021.0 |
| 20260507100508 | 40 | 9 | 2.6 | 3.5 | 0.00 | 0.00 | 0.00 | 91 | 1021.0 |
| 20260507100005 | 39 | 347 | 0.9 | 1.7 | 0.00 | 0.00 | 0.00 | 90 | 1020.9 |
| 20260507095503 | 40 | 19 | 3.5 | 3.5 | 0.00 | 0.00 | 0.00 | 90 | 1020.9 |
| 20260507094954 | 40 | 29 | 0.0 | 3.5 | 0.00 | 0.00 | 0.00 | 90 | 1021.0 |
| 20260507094450 | 40 | 16 | 0.9 | 6.1 | 0.00 | 0.00 | 0.00 | 89 | 1020.9 |
| 20260507093947 | 39 | 20 | 2.6 | 2.6 | 0.00 | 0.00 | 0.00 | 89 | 1020.8 |
| 20260507093445 | 40 | 112 | 0.9 | 1.7 | 0.00 | 0.00 | 0.00 | 88 | 1020.7 |
| 20260507092943 | 40 | 111 | 0.9 | 1.7 | 0.00 | 0.00 | 0.00 | 88 | 1020.6 |
| 20260507092439 | 40 | 44 | 0.0 | 0.0 | 0.00 | 0.00 | 0.00 | 88 | 1020.9 |
| 20260507091936 | 40 | 55 | 1.7 | 1.7 | 0.00 | 0.00 | 0.00 | 87 | 1020.8 |
| 20260507091432 | 40 | 103 | 0.0 | 0.9 | 0.00 | 0.00 | 0.00 | 86 | 1020.7 |
| 20260507090928 | 41 | 89 | 0.0 | 0.9 | 0.00 | 0.00 | 0.00 | 86 | 1020.7 |
| 20260507090425 | 41 | 38 | 0.0 | 1.7 | 0.00 | 0.00 | 0.00 | 86 | 1020.8 |
| 20260507085921 | 42 | 66 | 0.0 | 0.9 | 0.00 | 0.00 | 0.00 | 85 | 1020.5 |
| 20260507085418 | 42 | 49 | 1.7 | 1.7 | 0.00 | 0.00 | 0.00 | 84 | 1020.7 |
| 20260507084916 | 42 | 74 | 1.7 | 1.7 | 0.00 | 0.00 | 0.00 | 84 | 1020.6 |
| 20260507084412 | 42 | 93 | 1.7 | 1.7 | 0.00 | 0.00 | 0.00 | 83 | 1020.5 |
| 20260507083910 | 43 | 67 | 1.7 | 1.7 | 0.00 | 0.00 | 0.00 | 83 | 1020.5 |
| 20260507083406 | 43 | 39 | 2.6 | 3.5 | 0.00 | 0.00 | 0.00 | 83 | 1020.7 |
| 20260507082902 | 43 | 28 | 2.6 | 3.5 | 0.00 | 0.00 | 0.00 | 82 | 1020.7 |
| 20260507082358 | 43 | 39 | 2.6 | 3.5 | 0.00 | 0.00 | 0.00 | 81 | 1020.7 |
| 20260507081855 | 44 | 40 | 2.6 | 3.5 | 0.00 | 0.00 | 0.00 | 81 | 1020.8 |
| 20260507081351 | 44 | 65 | 2.6 | 3.5 | 0.00 | 0.00 | 0.00 | 80 | 1020.7 |
| 20260507080848 | 44 | 57 | 3.5 | 4.3 | 0.00 | 0.00 | 0.00 | 80 | 1020.6 |
| 20260507080344 | 44 | 70 | 4.3 | 5.2 | 0.00 | 0.00 | 0.00 | 80 | 1020.5 |
| 20260507075839 | 44 | 81 | 3.5 | 5.2 | 0.00 | 0.00 | 0.00 | 79 | 1020.5 |
| 20260507075336 | 45 | 80 | 0.0 | 3.5 | 0.00 | 0.00 | 0.00 | 79 | 1020.8 |
| 20260507074832 | 45 | 87 | 3.5 | 8.7 | 0.00 | 0.00 | 0.00 | 78 | 1020.4 |
| 20260507074330 | 45 | 136 | 5.2 | 6.1 | 0.00 | 0.00 | 0.00 | 76 | 1020.8 |
| 20260507073827 | 45 | 52 | 3.5 | 5.2 | 0.00 | 0.00 | 0.00 | 75 | 1021.1 |
| 20260507073324 | 45 | 16 | 5.2 | 7.8 | 0.00 | 0.00 | 0.00 | 74 | 1021.5 |
| 20260507072821 | 45 | 31 | 7.0 | 8.7 | 0.00 | 0.00 | 0.00 | 73 | 1021.8 |
| 20260507072318 | 45 | 8 | 5.2 | 6.1 | 0.00 | 0.00 | 0.00 | 72 | 1021.9 |
| 20260507071815 | 45 | 24 | 7.0 | 7.8 | 0.00 | 0.00 | 0.00 | 72 | 1021.5 |
| 20260507071312 | 46 | 16 | 7.0 | 9.6 | 0.00 | 0.00 | 0.00 | 71 | 1021.2 |
| 20260507070809 | 46 | 11 | 7.0 | 7.8 | 0.00 | 0.00 | 0.00 | 70 | 1021.7 |
| 20260507070306 | 46 | 17 | 4.3 | 9.6 | 0.00 | 0.00 | 0.00 | 70 | 1021.7 |
| 20260507065803 | 46 | 1 | 8.7 | 10.4 | 0.00 | 0.00 | 0.00 | 69 | 1021.9 |
| 20260507065259 | 46 | 13 | 7.0 | 8.7 | 0.00 | 0.00 | 0.00 | 68 | 1022.2 |
| 20260507064756 | 46 | 9 | 5.2 | 6.1 | 0.00 | 0.00 | 0.00 | 68 | 1022.1 |
| 20260507064255 | 46 | 30 | 4.3 | 7.0 | 0.00 | 0.00 | 0.00 | 67 | 1021.9 |
| 20260507063753 | 47 | 46 | 6.1 | 7.8 | 0.00 | 0.00 | 0.00 | 67 | 1022.0 |
| 20260507063249 | 47 | 8 | 6.1 | 8.7 | 0.00 | 0.00 | 0.00 | 67 | 1022.0 |
| 20260507062746 | 47 | 352 | 5.2 | 7.8 | 0.00 | 0.00 | 0.00 | 67 | 1021.8 |
| 20260507062243 | 47 | 48 | 7.0 | 9.6 | 0.00 | 0.00 | 0.00 | 66 | 1021.6 |
| 20260507061741 | 47 | 27 | 5.2 | 7.8 | 0.00 | 0.00 | 0.00 | 66 | 1021.7 |
| 20260507061239 | 47 | 28 | 5.2 | 7.0 | 0.00 | 0.00 | 0.00 | 66 | 1021.9 |
| 20260507060737 | 47 | 44 | 6.1 | 11.3 | 0.00 | 0.00 | 0.00 | 66 | 1021.6 |
| 20260507060233 | 47 | 50 | 7.8 | 10.4 | 0.00 | 0.00 | 0.00 | 66 | 1021.5 |
| 20260507055730 | 47 | 31 | 9.6 | 11.3 | 0.00 | 0.00 | 0.00 | 65 | 1021.1 |
| 20260507055225 | 47 | 39 | 7.8 | 12.2 | 0.00 | 0.00 | 0.00 | 65 | 1020.9 |
| 20260507054721 | 47 | 16 | 8.7 | 11.3 | 0.00 | 0.00 | 0.00 | 65 | 1020.8 |
| 20260507054218 | 47 | 40 | 7.8 | 11.3 | 0.00 | 0.00 | 0.00 | 65 | 1020.9 |
| 20260507053716 | 47 | 36 | 5.2 | 11.3 | 0.00 | 0.00 | 0.00 | 65 | 1021.1 |
| 20260507053214 | 47 | 60 | 6.1 | 12.2 | 0.00 | 0.00 | 0.00 | 65 | 1021.1 |
| 20260507052713 | 47 | 37 | 7.8 | 13.0 | 0.00 | 0.00 | 0.00 | 65 | 1020.8 |
| 20260507052208 | 47 | 38 | 6.1 | 12.2 | 0.00 | 0.00 | 0.00 | 65 | 1020.7 |
| 20260507051706 | 47 | 47 | 7.8 | 13.0 | 0.00 | 0.00 | 0.00 | 65 | 1021.0 |
| 20260507051203 | 47 | 37 | 5.2 | 13.9 | 0.00 | 0.00 | 0.00 | 66 | 1020.8 |
| 20260507050659 | 47 | 6 | 11.3 | 13.0 | 0.00 | 0.00 | 0.00 | 66 | 1020.9 |
| 20260507050156 | 47 | 22 | 9.6 | 15.6 | 0.00 | 0.00 | 0.00 | 65 | 1020.9 |
| 20260507045653 | 48 | 20 | 10.4 | 16.5 | 0.00 | 0.00 | 0.00 | 64 | 1020.9 |
| 20260507045149 | 48 | 35 | 13.0 | 15.6 | 0.00 | 0.00 | 0.00 | 63 | 1021.1 |
| 20260507044646 | 48 | 10 | 8.7 | 16.5 | 0.00 | 0.00 | 0.00 | 63 | 1021.0 |
| 20260507044143 | 48 | 24 | 7.0 | 11.3 | 0.00 | 0.00 | 0.00 | 63 | 1021.0 |
| 20260507043639 | 48 | 15 | 9.6 | 12.2 | 0.00 | 0.00 | 0.00 | 63 | 1020.9 |
| 20260507043136 | 48 | 40 | 11.3 | 13.0 | 0.00 | 0.00 | 0.00 | 62 | 1020.8 |
| 20260507042632 | 48 | 22 | 8.7 | 13.0 | 0.00 | 0.00 | 0.00 | 62 | 1020.7 |
| 20260507042121 | 48 | 19 | 9.6 | 13.9 | 0.00 | 0.00 | 0.00 | 62 | 1020.6 |
| 20260507041619 | 48 | 7 | 9.6 | 15.6 | 0.00 | 0.00 | 0.00 | 62 | 1020.7 |
| 20260507041116 | 48 | 9 | 9.6 | 13.0 | 0.00 | 0.00 | 0.00 | 61 | 1020.2 |
| 20260507040612 | 49 | 41 | 9.6 | 18.2 | 0.00 | 0.00 | 0.00 | 61 | 1020.2 |
| 20260507040103 | 49 | 20 | 13.0 | 15.6 | 0.00 | 0.00 | 0.00 | 60 | 1020.2 |
| 20260507035559 | 49 | 23 | 10.4 | 15.6 | 0.00 | 0.00 | 0.00 | 60 | 1020.2 |
| 20260507035055 | 49 | 15 | 14.8 | 20.9 | 0.00 | 0.00 | 0.00 | 60 | 1020.5 |
| 20260507034552 | 49 | 26 | 12.2 | 14.8 | 0.00 | 0.00 | 0.00 | 60 | 1020.1 |
| 20260507034050 | 50 | 7 | 14.8 | 19.1 | 0.00 | 0.00 | 0.00 | 60 | 1020.5 |
| 20260507033548 | 50 | 23 | 11.3 | 14.8 | 0.00 | 0.00 | 0.00 | 60 | 1020.1 |
| 20260507033045 | 50 | 12 | 13.0 | 14.8 | 0.00 | 0.00 | 0.00 | 61 | 1020.1 |
| 20260507032542 | 50 | 31 | 13.9 | 20.0 | 0.00 | 0.00 | 0.00 | 61 | 1019.9 |
| 20260507032038 | 50 | 25 | 14.8 | 23.5 | 0.00 | 0.00 | 0.00 | 62 | 1020.1 |
| 20260507031535 | 50 | 35 | 11.3 | 20.0 | 0.00 | 0.00 | 0.00 | 62 | 1020.1 |
| 20260507031032 | 51 | 41 | 12.2 | 18.2 | 0.00 | 0.00 | 0.00 | 61 | 1020.0 |
| 20260507030529 | 52 | 23 | 13.0 | 21.7 | 0.00 | 0.00 | 0.00 | 57 | 1019.4 |
| 20260507030027 | 52 | 5 | 10.4 | 17.4 | 0.00 | 0.00 | 0.00 | 56 | 1019.6 |
| 20260507025523 | 52 | 37 | 13.9 | 21.7 | 0.00 | 0.00 | 0.00 | 55 | 1019.4 |
| 20260507025021 | 53 | 30 | 11.3 | 19.1 | 0.00 | 0.00 | 0.00 | 54 | 1019.1 |
| 20260507024518 | 53 | 25 | 10.4 | 18.2 | 0.00 | 0.00 | 0.00 | 54 | 1019.4 |
| 20260507024015 | 53 | 16 | 11.3 | 20.0 | 0.00 | 0.00 | 0.00 | 53 | 1019.0 |
| 20260507023511 | 54 | 16 | 8.7 | 17.4 | 0.00 | 0.00 | 0.00 | 53 | 1019.0 |
| 20260507023009 | 54 | 4 | 11.3 | 12.2 | 0.00 | 0.00 | 0.00 | 53 | 1018.8 |
| 20260507022505 | 54 | 12 | 9.6 | 13.9 | 0.00 | 0.00 | 0.00 | 53 | 1018.7 |
| 20260507022000 | 55 | 35 | 7.8 | 18.2 | 0.00 | 0.00 | 0.00 | 54 | 1018.6 |
| 20260507021456 | 55 | 30 | 11.3 | 13.9 | 0.00 | 0.00 | 0.00 | 53 | 1018.2 |
| 20260507020953 | 55 | 21 | 8.7 | 14.8 | 0.00 | 0.00 | 0.00 | 53 | 1017.9 |
| 20260507020450 | 55 | 33 | 7.0 | 12.2 | 0.00 | 0.00 | 0.00 | 53 | 1017.9 |
| 20260507015947 | 55 | 30 | 9.6 | 13.0 | 0.00 | 0.00 | 0.00 | 53 | 1018.0 |
| 20260507015445 | 55 | 30 | 9.6 | 14.8 | 0.00 | 0.00 | 0.00 | 53 | 1017.5 |
| 20260507014936 | 55 | 42 | 9.6 | 13.0 | 0.00 | 0.00 | 0.00 | 53 | 1017.6 |
| 20260507014433 | 55 | 22 | 8.7 | 16.5 | 0.00 | 0.00 | 0.00 | 53 | 1017.1 |
| 20260507013929 | 55 | 56 | 10.4 | 12.2 | 0.00 | 0.00 | 0.00 | 52 | 1016.8 |
| 20260507013426 | 55 | 53 | 7.8 | 13.0 | 0.00 | 0.00 | 0.00 | 52 | 1016.6 |
| 20260507012924 | 56 | 69 | 9.6 | 13.9 | 0.00 | 0.00 | 0.00 | 51 | 1016.6 |
| 20260507012420 | 56 | 65 | 8.7 | 14.8 | 0.00 | 0.00 | 0.00 | 51 | 1016.2 |
| 20260507011917 | 56 | 82 | 7.8 | 13.0 | 0.00 | 0.00 | 0.00 | 51 | 1016.0 |
| 20260507011414 | 57 | 63 | 9.6 | 15.6 | 0.00 | 0.00 | 0.00 | 50 | 1015.7 |
| 20260507010914 | 57 | 82 | 13.0 | 15.6 | 0.00 | 0.00 | 0.00 | 49 | 1016.0 |
| 20260507010409 | 58 | 81 | 9.6 | 13.9 | 0.00 | 0.00 | 0.00 | 49 | 1015.8 |
| 20260507005907 | 58 | 72 | 7.8 | 15.6 | 0.00 | 0.00 | 0.00 | 48 | 1015.6 |
| 20260507005403 | 58 | 71 | 12.2 | 14.8 | 0.00 | 0.00 | 0.00 | 49 | 1015.6 |
| 20260507004900 | 59 | 82 | 9.6 | 14.8 | 0.00 | 0.00 | 0.00 | 48 | 1015.5 |
| 20260507004357 | 59 | 77 | 7.0 | 15.6 | 0.00 | 0.00 | 0.00 | 48 | 1015.3 |
| 20260507003854 | 59 | 106 | 7.8 | 13.9 | 0.00 | 0.00 | 0.00 | 48 | 1015.3 |
| 20260507003349 | 59 | 103 | 7.8 | 15.6 | 0.00 | 0.00 | 0.00 | 48 | 1015.2 |
| 20260507002845 | 59 | 71 | 8.7 | 15.6 | 0.00 | 0.00 | 0.00 | 48 | 1015.2 |
| 20260507002341 | 59 | 87 | 14.8 | 14.8 | 0.00 | 0.00 | 0.00 | 48 | 1015.1 |
| 20260507001839 | 59 | 87 | 13.9 | 15.6 | 0.00 | 0.00 | 0.00 | 48 | 1015.0 |
| 20260507001335 | 59 | 87 | 13.0 | 14.8 | 0.00 | 0.00 | 0.00 | 48 | 1014.7 |
| 20260507000832 | 59 | 94 | 10.4 | 15.6 | 0.00 | 0.00 | 0.00 | 48 | 1014.8 |
| 20260507000328 | 59 | 93 | 11.3 | 16.5 | 0.00 | 0.00 | 0.00 | 47 | 1014.9 |
| 20260506235824 | 59 | 84 | 8.7 | 15.6 | 0.00 | 0.00 | 0.00 | 48 | 1014.6 |
| 20260506235320 | 60 | 92 | 9.6 | 14.8 | 0.00 | 0.00 | 0.00 | 47 | 1014.6 |
| 20260506234817 | 60 | 99 | 6.1 | 20.9 | 0.00 | 0.00 | 0.00 | 48 | 1014.7 |
| 20260506234315 | 60 | 94 | 7.8 | 14.8 | 0.00 | 0.00 | 0.00 | 48 | 1014.7 |
| 20260506233812 | 60 | 80 | 14.8 | 18.2 | 0.00 | 0.00 | 0.00 | 47 | 1014.9 |
| 20260506233308 | 59 | 94 | 16.5 | 18.2 | 0.00 | 0.00 | 0.00 | 48 | 1015.1 |
| 20260506232805 | 60 | 87 | 7.0 | 13.9 | 0.00 | 0.00 | 0.00 | 48 | 1014.9 |
| 20260506232259 | 59 | 85 | 7.0 | 11.3 | 0.00 | 0.00 | 0.00 | 49 | 1015.0 |
| 20260506231751 | 59 | 72 | 13.0 | 16.5 | 0.00 | 0.00 | 0.00 | 48 | 1014.9 |
| 20260506231250 | 59 | 89 | 20.9 | 23.5 | 0.00 | 0.00 | 0.00 | 48 | 1015.0 |
| 20260506230746 | 60 | 62 | 12.2 | 22.6 | 0.00 | 0.00 | 0.00 | 48 | 1014.7 |
| 20260506230243 | 60 | 88 | 10.4 | 18.2 | 0.00 | 0.00 | 0.00 | 48 | 1014.7 |
| 20260506225739 | 60 | 66 | 9.6 | 17.4 | 0.00 | 0.00 | 0.00 | 48 | 1014.5 |
| 20260506225237 | 59 | 83 | 11.3 | 20.0 | 0.00 | 0.00 | 0.00 | 48 | 1014.7 |
| 20260506224733 | 60 | 79 | 7.8 | 15.6 | 0.00 | 0.00 | 0.00 | 48 | 1014.8 |
| 20260506224230 | 60 | 62 | 15.6 | 20.9 | 0.00 | 0.00 | 0.00 | 48 | 1014.7 |
| 20260506223726 | 60 | 94 | 9.6 | 17.4 | 0.00 | 0.00 | 0.00 | 48 | 1014.7 |
| 20260506223222 | 60 | 103 | 7.8 | 16.5 | 0.00 | 0.00 | 0.00 | 47 | 1014.7 |
| 20260506222720 | 60 | 54 | 13.9 | 18.2 | 0.00 | 0.00 | 0.00 | 48 | 1014.7 |
| 20260506222215 | 60 | 80 | 13.0 | 20.0 | 0.00 | 0.00 | 0.00 | 49 | 1014.7 |
| 20260506221713 | 61 | 79 | 11.3 | 13.0 | 0.00 | 0.00 | 0.00 | 47 | 1014.8 |
| 20260506221211 | 60 | 77 | 6.1 | 13.9 | 0.00 | 0.00 | 0.00 | 48 | 1014.8 |
| 20260506220708 | 61 | 84 | 10.4 | 15.6 | 0.00 | 0.00 | 0.00 | 48 | 1014.8 |
| 20260506220202 | 60 | 78 | 11.3 | 21.7 | 0.00 | 0.00 | 0.00 | 48 | 1014.8 |
| 20260506215659 | 60 | 58 | 7.8 | 15.6 | 0.00 | 0.00 | 0.00 | 47 | 1014.9 |
| 20260506215154 | 61 | 75 | 13.0 | 13.9 | 0.00 | 0.00 | 0.00 | 48 | 1015.0 |
| 20260506214652 | 61 | 95 | 18.2 | 18.2 | 0.00 | 0.00 | 0.00 | 47 | 1014.8 |
| 20260506214149 | 60 | 82 | 11.3 | 18.2 | 0.00 | 0.00 | 0.00 | 48 | 1014.9 |
| 20260506213648 | 59 | 64 | 10.4 | 16.5 | 0.00 | 0.00 | 0.00 | 50 | 1014.9 |
| 20260506213144 | 60 | 74 | 13.0 | 20.0 | 0.00 | 0.00 | 0.00 | 49 | 1015.0 |
| 20260506212642 | 60 | 83 | 12.2 | 20.9 | 0.00 | 0.00 | 0.00 | 49 | 1015.0 |
| 20260506212136 | 60 | 72 | 11.3 | 20.9 | 0.00 | 0.00 | 0.00 | 49 | 1014.9 |
| 20260506211632 | 60 | 107 | 11.3 | 14.8 | 0.00 | 0.00 | 0.00 | 48 | 1014.9 |
| 20260506211129 | 60 | 91 | 10.4 | 17.4 | 0.00 | 0.00 | 0.00 | 48 | 1014.9 |
| 20260506210627 | 61 | 66 | 11.3 | 16.5 | 0.00 | 0.00 | 0.00 | 48 | 1014.9 |
| 20260506210123 | 60 | 67 | 16.5 | 20.0 | 0.00 | 0.00 | 0.00 | 48 | 1014.9 |
| 20260506205620 | 61 | 79 | 14.8 | 16.5 | 0.00 | 0.00 | 0.00 | 47 | 1015.0 |
| 20260506205114 | 61 | 74 | 10.4 | 16.5 | 0.00 | 0.00 | 0.00 | 47 | 1015.0 |
| 20260506204613 | 61 | 64 | 9.6 | 12.2 | 0.00 | 0.00 | 0.00 | 47 | 1015.0 |
| 20260506204109 | 61 | 56 | 12.2 | 15.6 | 0.00 | 0.00 | 0.00 | 47 | 1015.1 |
| 20260506203608 | 63 | 69 | 16.5 | 18.2 | 0.00 | 0.00 | 0.00 | 44 | 1015.2 |
| 20260506203104 | 64 | 100 | 8.7 | 15.6 | 0.00 | 0.00 | 0.00 | 44 | 1015.1 |
| 20260506202602 | 62 | 91 | 4.3 | 11.3 | 0.00 | 0.00 | 0.00 | 46 | 1014.8 |
| 20260506202058 | 59 | 105 | 6.1 | 10.4 | 0.00 | 0.00 | 0.00 | 48 | 1015.1 |
| 20260506201555 | 59 | 98 | 3.5 | 11.3 | 0.00 | 0.00 | 0.00 | 49 | 1015.5 |
| 20260506201052 | 59 | 109 | 6.1 | 13.0 | 0.00 | 0.00 | 0.00 | 49 | 1014.9 |
| 20260506200548 | 60 | 54 | 14.8 | 17.4 | 0.00 | 0.00 | 0.00 | 48 | 1015.0 |
| 20260506200045 | 62 | 87 | 17.4 | 18.2 | 0.00 | 0.00 | 0.00 | 46 | 1015.0 |
| 20260506195542 | 60 | 143 | 3.5 | 13.0 | 0.00 | 0.00 | 0.00 | 48 | 1015.0 |
| 20260506195038 | 62 | 96 | 7.0 | 14.8 | 0.00 | 0.00 | 0.00 | 46 | 1014.9 |
| 20260506194536 | 60 | 84 | 12.2 | 16.5 | 0.00 | 0.00 | 0.00 | 48 | 1015.1 |
| 20260506194032 | 62 | 81 | 5.2 | 7.8 | 0.00 | 0.00 | 0.00 | 46 | 1015.3 |
| 20260506193530 | 60 | 95 | 7.0 | 9.6 | 0.00 | 0.00 | 0.00 | 49 | 1015.2 |
| 20260506193027 | 60 | 131 | 9.6 | 14.8 | 0.00 | 0.00 | 0.00 | 49 | 1015.3 |
| 20260506192524 | 60 | 42 | 4.3 | 13.0 | 0.00 | 0.00 | 0.00 | 48 | 1015.3 |
| 20260506192019 | 60 | 89 | 7.0 | 13.0 | 0.00 | 0.00 | 0.00 | 50 | 1015.6 |
| 20260506191516 | 58 | 94 | 7.8 | 8.7 | 0.00 | 0.00 | 0.00 | 50 | 1015.5 |
| 20260506191012 | 60 | 82 | 12.2 | 20.0 | 0.00 | 0.00 | 0.00 | 49 | 1015.5 |
| 20260506190510 | 59 | 85 | 10.4 | 15.6 | 0.00 | 0.00 | 0.00 | 50 | 1015.7 |
| 20260506190007 | 60 | 69 | 12.2 | 15.6 | 0.00 | 0.00 | 0.00 | 49 | 1015.7 |
| 20260506185504 | 59 | 96 | 6.1 | 7.8 | 0.00 | 0.00 | 0.00 | 50 | 1015.6 |
| 20260506185000 | 59 | 82 | 11.3 | 14.8 | 0.00 | 0.00 | 0.00 | 51 | 1015.7 |
| 20260506184457 | 59 | 99 | 7.0 | 8.7 | 0.00 | 0.00 | 0.00 | 53 | 1015.5 |
| 20260506183955 | 57 | 48 | 6.1 | 11.3 | 0.00 | 0.00 | 0.00 | 52 | 1015.8 |
| 20260506183450 | 58 | 37 | 7.0 | 12.2 | 0.00 | 0.00 | 0.00 | 50 | 1015.9 |
| 20260506182947 | 58 | 73 | 10.4 | 16.5 | 0.00 | 0.00 | 0.00 | 50 | 1015.9 |
| 20260506182444 | 58 | 55 | 7.0 | 9.6 | 0.00 | 0.00 | 0.00 | 51 | 1016.0 |
| 20260506181941 | 58 | 61 | 7.8 | 12.2 | 0.00 | 0.00 | 0.00 | 50 | 1016.2 |
| 20260506181439 | 57 | 68 | 5.2 | 10.4 | 0.00 | 0.00 | 0.00 | 52 | 1016.2 |
| 20260506180936 | 59 | 51 | 5.2 | 10.4 | 0.00 | 0.00 | 0.00 | 49 | 1016.5 |
| 20260506180432 | 58 | 21 | 4.3 | 5.2 | 0.00 | 0.00 | 0.00 | 49 | 1016.1 |
| 20260506175929 | 59 | 52 | 5.2 | 9.6 | 0.00 | 0.00 | 0.00 | 49 | 1016.3 |
| 20260506175426 | 57 | 99 | 3.5 | 6.1 | 0.00 | 0.00 | 0.00 | 51 | 1016.3 |
| 20260506174923 | 57 | 104 | 6.1 | 11.3 | 0.00 | 0.00 | 0.00 | 51 | 1016.1 |
| 20260506174421 | 58 | 107 | 5.2 | 9.6 | 0.00 | 0.00 | 0.00 | 51 | 1016.3 |
| 20260506173917 | 58 | 49 | 5.2 | 7.0 | 0.00 | 0.00 | 0.00 | 50 | 1016.5 |
| 20260506173414 | 57 | 82 | 6.1 | 10.4 | 0.00 | 0.00 | 0.00 | 52 | 1016.5 |
| 20260506172911 | 57 | 117 | 7.0 | 11.3 | 0.00 | 0.00 | 0.00 | 53 | 1016.6 |
| 20260506172407 | 57 | 134 | 6.1 | 9.6 | 0.00 | 0.00 | 0.00 | 52 | 1016.6 |
| 20260506171905 | 58 | 130 | 2.6 | 4.3 | 0.00 | 0.00 | 0.00 | 50 | 1016.3 |
| 20260506171402 | 56 | 89 | 7.0 | 9.6 | 0.00 | 0.00 | 0.00 | 54 | 1016.6 |
| 20260506170854 | 57 | 88 | 4.3 | 7.8 | 0.00 | 0.00 | 0.00 | 54 | 1016.6 |